K3ZED-2 Weather Reports


Display with metric or nautical units.
time (UTC)temp
F
wind
direction
speed
MPH
gust
MPH
rain 1hr
in
rain 24hr
in
rain mn
in
humidity
%
barometer
mb
20260507160046 58 300 0.0 8.0 0.00 0.24 0.23 60 1011.6
20260507154551 57 57 1.0 11.0 0.00 0.28 0.23 59 1011.6
20260507153042 56 356 0.0 2.0 0.00 0.28 0.23 64 1011.9
20260507151541 55 69 0.0 5.0 0.00 0.28 0.23 67 1012.0
20260507150040 55 336 2.0 10.0 0.00 0.28 0.23 65 1012.3
20260507144539 54 356 0.0 11.0 0.00 0.34 0.23 69 1012.5
20260507143039 53 338 0.0 10.0 0.00 0.34 0.23 68 1012.8
20260507141539 53 42 0.0 10.0 0.00 0.34 0.23 73 1012.8
20260507140037 52 37 3.0 11.0 0.00 0.34 0.23 72 1012.9
20260507134538 51 317 1.0 9.0 0.00 0.35 0.23 73 1012.9
20260507133043 50 282 0.0 4.0 0.00 0.35 0.23 78 1013.0
20260507131541 50 346 0.0 8.0 0.00 0.35 0.23 82 1012.8
20260507130035 50 12 0.0 4.0 0.00 0.35 0.23 88 1012.7
20260507124532 50 324 0.0 3.0 0.00 0.35 0.23 89 1012.7
20260507123029 49 294 0.0 4.0 0.00 0.35 0.23 90 1012.8
20260507121527 49 299 0.0 0.0 0.00 0.35 0.23 91 1012.8
20260507120027 50 312 0.0 0.0 0.00 0.35 0.23 93 1012.6
20260507114523 50 293 0.0 0.0 0.00 0.35 0.23 95 1012.5
20260507113023 50 295 0.0 0.0 0.00 0.35 0.23 96 1012.2
20260507111520 50 293 0.0 0.0 0.00 0.35 0.23 96 1012.1
20260507110020 50 296 0.0 0.0 0.00 0.35 0.23 96 1012.1
20260507104520 50 309 0.0 0.0 0.00 0.35 0.23 96 1012.0
20260507103017 50 316 0.0 0.0 0.00 0.35 0.23 96 1011.8
20260507101517 50 316 0.0 0.0 0.00 0.35 0.23 96 1011.5
20260507100014 49 316 0.0 0.0 0.00 0.35 0.23 95 1011.5
20260507094513 49 316 0.0 0.0 0.00 0.35 0.23 95 1011.3
20260507093015 49 316 0.0 4.0 0.00 0.35 0.23 95 1011.3
20260507091511 49 317 0.0 0.0 0.00 0.35 0.23 95 1011.0
20260507090020 49 325 0.0 0.0 0.00 0.35 0.23 95 1011.2
20260507084509 49 325 0.0 0.0 0.00 0.35 0.23 95 1010.5
20260507083010 49 322 0.0 0.0 0.02 0.35 0.23 95 1010.6
20260507081508 49 305 0.0 0.0 0.03 0.35 0.23 95 1010.7
20260507080007 49 324 0.0 0.0 0.04 0.35 0.23 94 1010.4
20260507074507 49 328 0.0 0.0 0.04 0.35 0.23 94 1010.8
20260507073006 49 324 0.0 0.0 0.02 0.33 0.21 93 1010.9
20260507071504 49 27 0.0 4.0 0.03 0.32 0.20 92 1010.8
20260507070004 49 36 0.0 6.0 0.03 0.31 0.19 92 1010.9
20260507064502 50 327 0.0 9.0 0.04 0.31 0.19 92 1011.5
20260507063106 50 15 0.0 11.0 0.04 0.31 0.19 91 1011.1
20260507061555 51 338 5.0 13.0 0.05 0.28 0.17 92 1011.2
20260507060052 52 339 5.0 12.0 0.05 0.28 0.16 92 1011.2
20260507054551 53 286 1.0 10.0 0.11 0.27 0.15 93 1010.9
20260507053046 53 328 0.0 11.0 0.14 0.27 0.15 93 1011.1
20260507051544 54 294 0.0 9.0 0.11 0.24 0.12 93 1010.8
20260507050042 54 318 0.0 13.0 0.11 0.23 0.11 92 1010.9
20260507044539 55 297 1.0 8.0 0.03 0.15 0.03 90 1010.0
20260507043036 56 347 1.0 8.0 0.01 0.13 0.01 92 1010.1
20260507041533 56 314 0.0 6.0 0.01 0.13 0.01 91 1010.1
20260507040032 57 313 0.0 8.0 0.00 0.12 0.00 90 1009.8
20260507034528 57 299 1.0 9.0 0.00 0.12 0.12 90 1009.9
20260507033030 58 324 0.0 16.0 0.00 0.12 0.12 87 1009.6
20260507031524 59 290 4.0 12.0 0.00 0.12 0.12 86 1009.9
20260507030124 60 334 2.0 13.0 0.00 0.12 0.12 89 1009.9
20260507024522 61 349 0.0 0.0 0.00 0.12 0.12 91 1009.5
20260507023021 62 312 0.0 0.0 0.01 0.12 0.12 91 1009.6
20260507021520 63 314 0.0 1.0 0.01 0.12 0.12 92 1009.6
20260507020021 63 298 0.0 0.0 0.01 0.12 0.12 92 1009.2
20260507014527 63 293 0.0 0.0 0.01 0.12 0.12 92 1009.7
20260507013039 64 229 0.0 0.0 0.00 0.11 0.11 90 1009.6
20260507011519 64 223 0.0 5.0 0.00 0.11 0.11 90 1009.2
20260507010025 64 230 0.0 0.0 0.00 0.11 0.11 89 1009.0
20260507004517 64 239 0.0 0.0 0.00 0.11 0.11 89 1009.0
20260507003016 64 227 0.0 1.0 0.00 0.11 0.11 89 1009.0
20260507001515 64 217 0.0 0.0 0.00 0.11 0.11 88 1008.7
20260507000017 65 216 0.0 8.0 0.00 0.11 0.11 88 1008.6
20260506234516 65 211 0.0 7.0 0.00 0.11 0.11 87 1008.3
20260506233015 65 215 0.0 9.0 0.00 0.11 0.11 86 1008.3
20260506231514 65 212 1.0 8.0 0.00 0.11 0.11 86 1008.3
20260506230013 66 208 0.0 10.0 0.00 0.11 0.11 86 1008.2
20260506224513 65 220 5.0 13.0 0.00 0.11 0.11 86 1008.3
20260506223012 66 214 2.0 16.0 0.00 0.11 0.11 85 1008.2
20260506221511 66 200 7.0 15.0 0.00 0.11 0.11 84 1008.3
20260506220011 67 210 9.0 16.0 0.00 0.11 0.11 84 1008.0
20260506214514 67 203 4.0 13.0 0.00 0.11 0.11 84 1007.9
20260506213010 67 208 7.0 14.0 0.00 0.11 0.11 84 1007.8
20260506211510 66 212 0.0 11.0 0.00 0.11 0.11 85 1007.7
20260506210009 67 219 3.0 16.0 0.00 0.11 0.11 84 1007.8
20260506204509 67 213 6.0 14.0 0.00 0.11 0.11 85 1007.5
20260506203007 67 209 6.0 17.0 0.00 0.11 0.11 85 1007.7
20260506201506 67 204 8.0 19.0 0.00 0.11 0.11 85 1007.6
20260506200004 66 224 7.0 17.0 0.00 0.11 0.11 85 1007.6
20260506194502 66 203 10.0 16.0 0.00 0.11 0.11 87 1007.7
20260506193059 65 232 13.0 25.0 0.00 0.11 0.11 88 1007.9
20260506191557 63 217 10.0 19.0 0.00 0.11 0.11 91 1008.1
20260506190058 62 218 6.0 18.0 0.00 0.11 0.11 92 1008.2
20260506184555 62 240 11.0 14.0 0.00 0.11 0.11 92 1008.4
20260506183058 62 214 3.0 17.0 0.00 0.11 0.11 92 1008.4
20260506181618 61 217 9.0 19.0 0.00 0.11 0.11 92 1008.5
20260506180049 61 212 10.0 23.0 0.00 0.11 0.11 92 1008.7
20260506174547 61 220 8.0 25.0 0.00 0.11 0.11 93 1008.7
20260506173057 60 214 9.0 21.0 0.00 0.11 0.11 93 1008.7
20260506171543 60 216 11.0 25.0 0.00 0.11 0.11 93 1008.8
20260506170042 60 212 13.0 26.0 0.00 0.11 0.11 93 1008.7
20260506164543 60 208 8.0 26.0 0.01 0.11 0.11 93 1008.7
20260506163042 61 201 10.0 22.0 0.02 0.11 0.11 94 1008.9
20260506161537 61 256 12.0 22.0 0.04 0.11 0.11 94 1009.1